Location: The Saddle
(36.8333°N, 80.3417°W)
Time: 06:38:38
(UTC-04:00)

Courier 1B - Pass Details

Date: 28 January 2022
Orbit: 962 x 1209 km, 28.3° (Epoch: 22 May)

Event Time Altitude Azimuth Distance (km) Brightness Sun altitude
Rises 19:53:30 0° 253° (WSW) 4,035 11.9 -26.3°
Reaches altitude 10° 19:56:25 10° 247° (WSW) 3,098 11.0 -26.9°
Maximum altitude 20:03:42 45° 178° (S) 1,580 8.5 -28.3°
Enters shadow 20:05:09 41° 150° (SSE) 1,669 8.4 -28.6°
